Total_Precipitation_Accumulation
1.14 1.11 1.06 1.01 0.99 0.97 0.93 0.89 0.87 0.85 0.83 0.78 0.72 0.69 0.67 0.65 0.69 0.77 0.82 0.82 0.83 0.82 0.81 0.81 0.84 0.89 0.99 0.99 1.02 1.07 1.22 1.40 1.50 1.28 1.11 1.04 1.06 1.08 1.09 1.06 0.93 0.80 0.76
1.00 0.97 0.89 0.84 0.83 0.86 0.82 0.74 0.69 0.70 0.72 0.70 0.65 0.61 0.56 0.57 0.64 0.67 0.68 0.66 0.71 0.73 0.71 0.71 0.72 0.79 0.88 0.93 0.97 0.98 1.07 1.21 1.33 1.35 1.20 1.09 1.04 1.06 1.09 1.07 0.87 0.69 0.66
0.95 0.95 0.90 0.83 0.78 0.75 0.73 0.67 0.63 0.65 0.65 0.63 0.60 0.58 0.56 0.54 0.57 0.57 0.55 0.57 0.62 0.66 0.65 0.64 0.66 0.73 0.79 0.84 0.90 0.93 0.98 1.01 1.13 1.17 1.07 1.01 0.96 0.94 1.07 1.09 1.01 0.93 0.64
0.89 0.96 0.96 0.91 0.83 0.76 0.73 0.75 0.69 0.65 0.61 0.57 0.55 0.54 0.51 0.47 0.50 0.51 0.47 0.51 0.60 0.58 0.55 0.58 0.63 0.64 0.66 0.74 0.78 0.88 0.97 1.05 1.09 1.09 1.01 0.92 0.94 0.98 1.19 1.25 1.16 1.00 0.79
0.83 0.85 0.81 0.79 0.78 0.72 0.69 0.71 0.68 0.63 0.59 0.57 0.53 0.52 0.48 0.44 0.44 0.47 0.44 0.45 0.56 0.57 0.57 0.58 0.57 0.54 0.55 0.60 0.64 0.73 0.88 1.04 1.11 1.15 1.08 0.98 0.96 1.11 1.19 1.15 1.12 0.98 0.82
0.78 0.78 0.72 0.66 0.65 0.64 0.64 0.59 0.55 0.57 0.61 0.60 0.61 0.59 0.52 0.46 0.51 0.51 0.43 0.46 0.53 0.58 0.61 0.61 0.57 0.51 0.47 0.47 0.49 0.55 0.69 0.87 1.04 1.17 1.12 1.06 1.01 1.11 1.19 1.14 1.20 1.18 1.06
0.77 0.73 0.70 0.70 0.68 0.63 0.61 0.59 0.57 0.58 0.62 0.63 0.63 0.63 0.60 0.55 0.56 0.52 0.47 0.48 0.55 0.65 0.70 0.69 0.58 0.50 0.56 0.56 0.52 0.49 0.54 0.63 0.86 1.11 1.23 1.14 1.08 1.17 1.31 1.30 1.30 1.30 1.21
0.75 0.69 0.65 0.66 0.69 0.68 0.71 0.72 0.67 0.62 0.64 0.70 0.69 0.64 0.65 0.63 0.60 0.55 0.51 0.51 0.52 0.60 0.65 0.63 0.67 0.66 0.58 0.56 0.50 0.52 0.61 0.70 0.77 0.86 1.07 1.09 0.98 1.01 1.18 1.25 1.26 1.23 1.15
0.70 0.63 0.60 0.59 0.64 0.66 0.67 0.69 0.67 0.67 0.68 0.72 0.71 0.71 0.72 0.69 0.61 0.56 0.57 0.59 0.55 0.54 0.51 0.50 0.56 0.59 0.52 0.50 0.54 0.64 0.72 0.77 0.65 0.75 0.84 0.97 1.02 0.95 0.95 1.04 1.26 1.41 1.40
0.62 0.56 0.54 0.56 0.60 0.60 0.62 0.65 0.66 0.68 0.70 0.70 0.72 0.75 0.72 0.67 0.54 0.47 0.50 0.52 0.52 0.50 0.52 0.55 0.52 0.46 0.45 0.47 0.55 0.70 0.80 0.79 0.84 1.00 1.17 1.27 1.25 1.15 0.99 1.08 1.33 1.51 1.55
0.52 0.53 0.56 0.59 0.63 0.60 0.63 0.68 0.69 0.67 0.70 0.70 0.66 0.62 0.60 0.51 0.41 0.36 0.36 0.38 0.44 0.47 0.54 0.61 0.59 0.48 0.45 0.43 0.51 0.64 0.74 0.79 1.06 1.40 1.46 1.38 1.30 1.23 1.13 1.10 1.21 1.36 1.51
0.55 0.57 0.58 0.60 0.51 0.48 0.63 0.67 0.63 0.66 0.69 0.64 0.59 0.57 0.51 0.44 0.33 0.27 0.27 0.30 0.35 0.44 0.61 0.62 0.57 0.52 0.44 0.43 0.50 0.67 0.75 0.95 1.26 1.49 1.41 1.22 1.10 1.04 0.99 0.97 1.04 1.13 1.28
0.69 0.69 0.63 0.62 0.60 0.62 0.65 0.61 0.59 0.60 0.56 0.46 0.43 0.45 0.42 0.41 0.36 0.25 0.23 0.26 0.33 0.38 0.53 0.57 0.55 0.53 0.52 0.64 0.73 0.85 0.95 1.15 1.38 1.39 1.24 1.11 1.03 0.96 0.88 0.90 0.93 0.99 0.99
0.76 0.71 0.66 0.67 0.71 0.67 0.60 0.49 0.46 0.43 0.41 0.40 0.38 0.37 0.35 0.34 0.27 0.22 0.22 0.27 0.33 0.37 0.47 0.60 0.69 0.74 0.76 0.86 0.96 1.08 1.17 1.27 1.25 1.16 1.03 0.97 0.90 0.89 0.88 0.88 0.92 0.93 0.98
0.77 0.72 0.66 0.59 0.57 0.57 0.45 0.33 0.32 0.30 0.27 0.32 0.34 0.31 0.31 0.28 0.21 0.21 0.22 0.24 0.32 0.39 0.44 0.63 0.85 0.93 0.99 1.04 1.05 1.11 1.17 1.13 1.11 1.06 0.98 0.89 0.85 0.86 0.88 0.87 0.92 0.89 0.93
0.69 0.65 0.56 0.45 0.40 0.36 0.32 0.32 0.26 0.21 0.23 0.25 0.29 0.26 0.20 0.19 0.17 0.18 0.22 0.27 0.35 0.45 0.52 0.75 0.95 1.02 1.05 1.07 1.03 1.03 1.06 1.02 0.96 0.94 0.95 0.91 0.88 0.87 0.89 0.92 0.96 0.95 0.96
0.59 0.53 0.40 0.31 0.28 0.27 0.28 0.38 0.40 0.31 0.24 0.24 0.22 0.22 0.20 0.20 0.18 0.19 0.24 0.31 0.37 0.45 0.55 0.75 0.95 1.12 1.14 1.05 0.96 0.94 0.98 0.98 0.95 0.93 0.91 0.91 0.87 0.84 0.87 0.90 0.90 0.89 0.90
0.43 0.34 0.27 0.25 0.21 0.20 0.20 0.27 0.41 0.45 0.41 0.38 0.31 0.24 0.22 0.22 0.23 0.23 0.26 0.30 0.41 0.48 0.60 0.76 0.90 0.98 1.02 1.01 0.94 0.90 0.91 0.93 0.94 0.91 0.88 0.87 0.84 0.82 0.80 0.83 0.84 0.78 0.76
0.32 0.26 0.23 0.19 0.17 0.17 0.17 0.21 0.29 0.32 0.37 0.41 0.40 0.32 0.27 0.26 0.30 0.30 0.28 0.32 0.42 0.50 0.60 0.69 0.76 0.77 0.76 0.78 0.77 0.76 0.80 0.84 0.83 0.80 0.80 0.81 0.81 0.79 0.77 0.74 0.70 0.63 0.64
0.24 0.18 0.16 0.13 0.13 0.14 0.14 0.19 0.26 0.27 0.30 0.36 0.38 0.34 0.30 0.35 0.42 0.41 0.37 0.36 0.37 0.42 0.51 0.60 0.65 0.62 0.60 0.59 0.58 0.59 0.61 0.63 0.62 0.62 0.64 0.66 0.68 0.68 0.66 0.62 0.60 0.59 0.63
0.15 0.15 0.12 0.10 0.11 0.13 0.14 0.18 0.23 0.24 0.24 0.30 0.30 0.26 0.28 0.34 0.44 0.47 0.47 0.46 0.44 0.45 0.46 0.47 0.52 0.54 0.54 0.53 0.51 0.49 0.49 0.50 0.50 0.52 0.55 0.59 0.61 0.60 0.55 0.52 0.51 0.49 0.51
0.13 0.14 0.09 0.08 0.10 0.11 0.13 0.15 0.18 0.18 0.19 0.21 0.21 0.19 0.24 0.28 0.35 0.39 0.46 0.52 0.51 0.50 0.47 0.45 0.46 0.50 0.54 0.56 0.50 0.46 0.45 0.45 0.45 0.49 0.53 0.56 0.55 0.50 0.45 0.44 0.42 0.44 0.46
0.09 0.11 0.08 0.06 0.08 0.11 0.14 0.16 0.17 0.15 0.17 0.18 0.17 0.18 0.21 0.27 0.30 0.34 0.40 0.47 0.50 0.50 0.47 0.43 0.46 0.50 0.51 0.53 0.50 0.44 0.40 0.38 0.38 0.41 0.48 0.52 0.51 0.46 0.42 0.42 0.41 0.43 0.45
0.08 0.10 0.08 0.07 0.08 0.10 0.13 0.14 0.13 0.13 0.14 0.13 0.14 0.17 0.20 0.25 0.28 0.31 0.35 0.40 0.45 0.49 0.47 0.46 0.45 0.46 0.46 0.47 0.43 0.33 0.29 0.29 0.28 0.30 0.37 0.44 0.44 0.41 0.38 0.39 0.39 0.39 0.41
0.07 0.08 0.07 0.07 0.08 0.10 0.11 0.12 0.11 0.10 0.10 0.10 0.12 0.14 0.15 0.18 0.22 0.24 0.27 0.32 0.37 0.42 0.42 0.41 0.41 0.38 0.36 0.35 0.33 0.27 0.26 0.26 0.26 0.27 0.31 0.35 0.35 0.36 0.37 0.38 0.36 0.36 0.38
0.05 0.07 0.07 0.08 0.12 0.13 0.12 0.11 0.10 0.09 0.10 0.11 0.11 0.11 0.11 0.14 0.17 0.19 0.19 0.22 0.26 0.31 0.34 0.34 0.33 0.31 0.27 0.23 0.24 0.25 0.24 0.22 0.22 0.25 0.29 0.35 0.36 0.36 0.38 0.38 0.36 0.38 0.41